Current Version              Previous Version:    01  02  03  04  05  06  07  08  09  10  11  12  13  14  15  16  17  18  19  20  21  22  23  24  25  26  27  28  29  30  
   31  32  33  34  35  36  37  38  39  40  41  42  43  44  45  46  47  48  49  50  51  52  53  54  55  56  57  58  59  60  

[Printable]
814
ASUS44 KLUB 300610
RWRTX
WEST TEXAS WEATHER ROUNDUP
NATIONAL WEATHER SERVICE LUBBOCK TX
100 AM CDT TUE SEP 30 2014

NOTE: "FAIR" INDICATES FEW OR NO CLOUDS BELOW 12,000 FEET WITH NO
SIGNIFICANT WEATHER AND/OR OBSTRUCTIONS TO VISIBILITY.

TXZ004-006>008-010-012-014-016-OKZ002-300700-
TEXAS PANHANDLE/OKLAHOMA PANHANDLE

CITY           SKY/WX    TMP DP  RH WIND       PRES   REMARKS
AMARILLO       PTCLDY    65  57  75 S18       29.96S
BORGER         MOCLDY    69  56  62 VRB3      29.95R
CANADIAN       MOCLDY    72  56  57 S14       29.91F
DALHART        CLOUDY    63  59  87 S10       29.95F
DUMAS          CLOUDY    62  57  84 S7        29.94F
GUYMON         LGT RAIN  67  59  75 S12       29.89F
HEREFORD       TSTM      65  61  87 S14G24    30.01R
PAMPA          MOCLDY    67  53  62 S17       29.94F
PERRYTON       MOCLDY    66  55  68 S14       29.90F
$$

TXZ026-029-035-045-048-300700-
SOUTHERN PANHANDLE/SOUTH PLAINS/ROLLING PLAINS

CITY           SKY/WX    TMP DP  RH WIND       PRES   REMARKS
CHILDRESS      CLEAR     67  55  65 SE7       29.93R
SEMINOLE       PTCLDY    65  57  75 S8        29.96F
LUBBOCK        CLEAR     65  57  75 S12       29.95F
PLAINVIEW      MOCLDY    61  58  88 S7        29.95S
SNYDER         PTCLDY    70  58  66 SE8       29.95S
$$

TXZ052-054-060>062-072-078-127-140-154-169-300700-
PERMIAN BASIN/CONCHO VALLEY/BIG COUNTRY/EDWARDS PLATEAU

CITY           SKY/WX    TMP DP  RH WIND       PRES   REMARKS
ABILENE        CLEAR     68  55  63 SE7       29.94S
BIG SPRING     CLEAR     72  57  60 SE8       29.96S
BRADY          CLEAR     68  55  64 E5        29.94F
BROWNWOOD      MOCLDY    64  57  77 CALM      29.93F
JUNCTION       CLEAR     70  61  73 CALM      29.94F
MIDLAND        PTCLDY    71  58  63 S10       29.94F
ODESSA         PTCLDY    70  58  65 S9        29.95F
SAN ANGELO     CLEAR     69  57  65 S5        29.92F
SONORA         CLEAR     68  61  77 CALM      29.99S
SWEETWATER     PTCLDY    69  57  64 SE10      29.97F
WINK           PTCLDY    70  58  65 SE10      29.90F
$$

TXZ055-058-074-075-080-082-300700-
FAR WEST/SOUTHWEST MOUNTAINS/TRANS PECOS

CITY           SKY/WX    TMP DP  RH WIND       PRES   REMARKS
ALPINE         PTCLDY    67  55  66 SW3       30.08S
DRYDEN           N/A     70  63  78 NE7       29.91F
EL PASO        PTCLDY    74  57  55 S6        29.94R
FORT STOCKTON  CLEAR     69  59  70 S17       29.94F
GUADALUPE PASS MOCLDY    66  55  67 S8        30.06F
MARFA          PTCLDY    61  55  82 W5        30.07S
PECOS          PTCLDY    69  58  68 E10       29.89F
PRESIDIO       FAIR      75  59  58 N8G16     29.92S
$$

TXZ014-016-019-021>030-083-300700
TEXAS TECH WEST TEXAS MESONET/TEXAS PANHANDLE/NORTHERN SOUTH PLAINS

CITY           SKY/WX    TMP DP  RH WIND       PRES   REMARKS
ABERNATHY 5ENE   N/A     61  57  87 S8        29.97S
AMARILLO 9NNE    N/A     67  57  70 S12       29.94R
AMHERST 1NE      N/A     62  57  82 SE12      29.95S
BOOTLEG 11WNW    N/A     60  56  86 S12       29.99S
CANADIAN 6E      N/A     68  55  62 SE10      29.91F
CAPROCK CYN SP   N/A     64  58  81 S8        29.94S
CHILDRESS 2NNE   N/A     66  55  68 SE7       29.92S
CLAUDE 12SW      N/A     66  56  71 S10       29.96F
DIMMITT 2NE      N/A     62  56  80 SE12      29.96S
FLOYDADA 2NNE    N/A     59  56  91 SE6       29.96S
FRIONA 2NE       N/A     62  58  87 SE6       29.99F
GOODLETT 3W      N/A     71  54  54 SE10      29.90S
HART 3N          N/A     61  56  83 SE9       29.96F
HEREFORD 2NW   RAIN      62  57  82 S14G37    29.99R
MCLEAN 1E        N/A     64  54  68 SE9       29.94R
MEMPHIS 1NE      N/A     64  55  74 SE7       29.93S
OLTON 6S         N/A     62  56  80 SE9       29.95S
PALO DURO SP     N/A     66  57  72 SE10      29.97F
PAMPA 2E         N/A     65  55  69 SE14      29.94F
PLAINVIEW 1S     N/A     63  58  85 SE6       29.95F
SILVERTON 7ESE   N/A     67  56  67 SE10      29.96S
TULIA 2ENE       N/A     61  57  86 SE8       29.97S
TURKEY 2WSW      N/A     64  59  83 S7        29.92F
UMBARGER 3NNE    N/A     65  56  73 S13       29.99R
$$

TXZ033>036-039>041-045>048-300700
TEXAS TECH WEST TEXAS MESONET/SOUTH PLAINS

CITY           SKY/WX    TMP DP  RH WIND       PRES   REMARKS
AIKEN 3WSW       N/A     61  58  89 SE7       29.97S
ANTON 6SSW       N/A     64  58  80 SE13      29.95S
BROWNFIELD 2S    N/A     63  56  80 SE9       29.95F
DENVR CTY 7WNW   N/A     62  54  75 S10       29.95F
GAIL 2ESE        N/A     65  58  80 SE6       29.93S
LAMESA 2SE       N/A     64  58  79 SE6       29.95S
LEVELLAND 4S     N/A     62  56  82 SE9       29.95F
LUBBOCK 3WNW     N/A     67  56  68 SE8       29.95F
MORTON 1ENE      N/A     62  57  82 S8        29.95S
ODONNELL 1N      N/A     65  56  72 S7        29.96S
PLAINS 3N        N/A     64  56  74 S12       29.96S
RALLS 1SE        N/A     63  57  81 S8        29.96F
REESE CENTER     N/A     64  56  76 SE13      29.95F
SEMINOLE 2NNE    N/A     66  57  72 S10       29.95S
SLATON 2NE       N/A     64  57  77 S12       29.96S
SNYDER 3E        N/A     67  58  72 SE9       29.93S
SUNDOWN 8SW      N/A     60  56  85 S8        29.95F
TAHOKA 3NNE      N/A     63  58  84 SE6       29.95S
WOLFFORTH 6SSW   N/A     63  58  86 SE8       29.95F
$$

TXZ031-032-036>038-042>044-300700-
TEXAS TECH WEST TEXAS MESONET/ROLLING PLAINS

CITY           SKY/WX    TMP DP  RH WIND       PRES   REMARKS
ASPERMONT 3NE    N/A     69  57  66 SE5       29.91S
FLUVANNA 3WNW    N/A     68  57  67 SE9       29.94S
GRAHAM 5SSW      N/A     67  57  70 SE9       29.95S
HASKELL 1NW      N/A     71  53  52 SE7       29.91S
JAYTON 1SSE      N/A     65  57  77 SE6       29.92S
KNOX CITY 3NW    N/A     72  53  51 SE12      29.90F
LK A HENRY 1NW   N/A     70  58  66 S5        29.92F
NORTHFIELD 1S    N/A     67  57  70 SE8       29.92S
ODELL 4ENE       N/A     70  57  63 SE8       29.92R
PADUCAH 10SW     N/A     66  56  69 S8        29.90F
POST 1NE         N/A     68  57  69 S5        29.94S
RRING SPRGS 3N   N/A     62  58  86 S7        29.93S
SEYMOUR 3NW      N/A     70  53  55 SE9       29.90F
SPUR 1W          N/A     64  57  79 SE2       29.92F
WEINERT 2NNE     N/A     70  55  57 SE9       29.90F
WHITE RVR 6NE    N/A     65  57  77 S5        29.94S
$$

TXZ052-054-060>062-072-078-127-140-154-169-300700-
TEXAS TECH WEST TEXAS MESONET/PERMIAN BASIN/
CONCHO VALLEY/BIG COUNTRY/EDWARDS PLATEAU

CITY           SKY/WX    TMP DP  RH WIND       PRES   REMARKS
COYANOSA 2N      N/A     70  59  68 SE7       29.91F
JUNCTION 1SSW    N/A     66  62  85 CALM      29.95R
MERTZON 3NNE     N/A     66  57  74 SW5       29.95F
SAN ANGELO 7NW   N/A     69  55  62 NE1       29.94S
STRLNG CT 4WSW   N/A     70  57  63 SE8       29.95S
ST LAWRNCE 5SW   N/A     64  56  76 SE8       29.95S
SWEETWATR 11SW   N/A     68  57  68 SE10      29.95F
WALL 1E          N/A     66  58  73 SE7       29.93F
$$

TXZ055-058-074-075-080-082-300700-
TEXAS TECH WEST TEXAS MESONET/FAR WEST/SOUTHWEST MOUNTAINS/TRANS PECOS

CITY           SKY/WX    TMP DP  RH WIND       PRES   REMARKS
PRSMN GAP BBNP   N/A     71  61  70 N13       29.95R
$$